STARLINK-1222, 45228

Orbit data source: Space-Track

STARLINK-1222, 45228 is a payload satellite owned by SpaceX/Seattle (US) in LEO that was launched on Mon, 17 Feb 2020 UTC via an FALCON 9 launch vehicle from the Air Force Eastern Test Range (AFETR). Payload-class satellites include a variety of spacecraft equipped with specific instruments for various scientific and technological missions. These include communications satellites like Starlink; space stations such as the ISS; scientific satellites like the Hubble; Earth observation satellites from companies like Planet Labs, Umbra, and HawkEye 360; GPS; miniature CubeSats for education and research; and military/defense satellites.

Loading next visibility...
Identifier
45228, 2020-012BC
Orbit
LEO
Country
Flag of USUS
Related business
Manufacturer
SpaceX/Seattle
Mission
Operational Commercial Communications
Bus & Motor
STARLINK, Unknown motor
Mass
260 kg wet, ~248 kg dry
Launch date (UTC)
2020-02-17 (6 years ago)
Launch vehicle
FALCON 9
Launch site
Air Force Eastern Test Range (AFETR)
Object type
Payload
Rocket body
Debris
Shape & HBR
Box + 1 Pan, 10.1 m
Radar Cross Section
13.562 m², Large (>1 m²)

Expand to show TLE details & history
Last TLE update: 17 hours ago

TLE from 17 hours ago
0 STARLINK-1222
1 45228U 20012BC  25288.30386489  .00000649  00000-0  62442-4 0  9993
2 45228  53.0547 299.2795 0001419  85.1373 274.9778 15.06397984313375
Epoch: 2025-10-15T07:17Z
TLE epoch observation values (Epoch: 2025-10-15T07:17:33.926Z)
Latitude
-0.00002°
Longitude
165.80826°
Altitude
548.012 km
Speed
7.589 km/s
True Right ascension
19h 57m 07s
True Declination
0° 00' 00"
Sunlit
Object was in daylight at epoch
Visualization orbit readout
Latitude
Unknown
Longitude
Unknown
Altitude
Unknown
Speed
Unknown
Apparent Right ascension
Unknown
Apparent Declination
Unknown
Sunlit
N/A
Visualization observer readout
Local Sidereal Time
19:00:52
Azimuth
Unknown
Elevation
Unknown
Doppler factor
Unknown
Orbital elements
Apogee altitude
548.471 km
Perigee altitude
546.506 km
Semi-major axis
6,925.625 km
Eccentricity
0.00014
Inclination
53.0547°
RAAN
299.2795°
Arg. of periapsis
85.1373°
True anomaly
274.9616°
Mean anomaly
274.9778°
Eccentric anomaly
274.9697°
Mean motion
3.76578 °/min
Orbital period
95.6 mins
BSTAR
0.000062442
Loading maneuver chart data...
Computing Atmospheric mass density...
Loading historical data...
Loading historical data...
Loading historical data...
Loading historical data...
Loading historical data...
Loading historical data...
Loading historical data...

Documentation

Showing up to 5 results
|